TimeEDT,TemperatureF,Dew PointF,Humidity,Sea Level PressureIn,VisibilityMPH,Wind Direction,Wind SpeedMPH,Gust SpeedMPH,PrecipitationIn,Events,Conditions,WindDirDegrees,DateUTC
12:19 AM,71.6,66.2,83,29.96,10.0,SW,5.8,-,N/A,,Overcast,220,2013-08-01 04:19:00
12:53 AM,70.0,66.9,90,29.95,9.0,WSW,3.5,-,N/A,,Mostly Cloudy,240,2013-08-01 04:53:00
1:53 AM,70.0,66.9,90,29.94,6.0,SW,4.6,-,N/A,,Overcast,220,2013-08-01 05:53:00
2:27 AM,69.8,66.2,88,29.94,1.5,WSW,6.9,-,0.13,Rain,Heavy Rain,240,2013-08-01 06:27:00
2:39 AM,69.8,68.0,94,29.94,2.0,West,5.8,-,0.20,Rain,Rain,280,2013-08-01 06:39:00
2:53 AM,70.0,68.0,93,29.92,5.0,West,5.8,-,0.20,Rain,Light Rain,280,2013-08-01 06:53:00
3:53 AM,69.1,66.9,93,29.91,6.0,WSW,3.5,-,0.01,,Overcast,250,2013-08-01 07:53:00
4:31 AM,69.8,66.2,88,29.93,5.0,West,4.6,-,N/A,,Overcast,270,2013-08-01 08:31:00
4:53 AM,68.0,66.9,96,29.91,4.0,West,3.5,-,N/A,,Mostly Cloudy,280,2013-08-01 08:53:00
5:30 AM,68.0,66.2,94,29.94,4.0,WNW,6.9,-,N/A,,Overcast,300,2013-08-01 09:30:00
5:49 AM,66.2,64.4,94,29.95,5.0,NW,8.1,-,N/A,,Overcast,310,2013-08-01 09:49:00
5:53 AM,66.9,64.9,93,29.93,5.0,NW,6.9,-,N/A,,Overcast,310,2013-08-01 09:53:00
6:15 AM,66.2,64.4,94,29.95,4.0,WNW,3.5,-,N/A,,Scattered Clouds,290,2013-08-01 10:15:00
6:43 AM,66.2,64.4,94,29.96,2.5,NW,6.9,-,N/A,,Mostly Cloudy,310,2013-08-01 10:43:00
6:51 AM,66.2,64.4,94,29.96,3.0,NW,8.1,-,N/A,,Mostly Cloudy,310,2013-08-01 10:51:00
6:52 AM,66.0,64.0,93,29.95,3.0,NW,8.1,-,N/A,,Mostly Cloudy,310,2013-08-01 10:52:00
7:15 AM,64.4,62.6,94,29.97,5.0,NW,6.9,-,N/A,,Scattered Clouds,310,2013-08-01 11:15:00
7:26 AM,66.2,62.6,88,29.98,5.0,NW,5.8,-,N/A,,Mostly Cloudy,310,2013-08-01 11:26:00
7:43 AM,66.2,62.6,88,29.98,4.0,WNW,6.9,-,N/A,,Overcast,300,2013-08-01 11:43:00
7:53 AM,66.0,63.0,90,29.97,5.0,NW,5.8,-,N/A,,Overcast,310,2013-08-01 11:53:00
8:53 AM,66.0,63.0,90,29.98,6.0,NW,6.9,-,N/A,,Overcast,320,2013-08-01 12:53:00
9:06 AM,66.2,62.6,88,29.99,6.0,NW,5.8,-,N/A,,Mostly Cloudy,320,2013-08-01 13:06:00
9:23 AM,66.2,62.6,88,30.00,7.0,NW,6.9,-,N/A,,Mostly Cloudy,310,2013-08-01 13:23:00
9:53 AM,66.9,62.1,84,29.99,8.0,NW,6.9,-,N/A,,Overcast,320,2013-08-01 13:53:00
10:53 AM,68.0,61.0,78,29.99,10.0,NW,8.1,-,N/A,,Overcast,320,2013-08-01 14:53:00
11:53 AM,71.1,61.0,70,29.99,10.0,NW,4.6,-,N/A,,Mostly Cloudy,320,2013-08-01 15:53:00
12:53 PM,73.0,61.0,66,30.00,10.0,NNW,4.6,-,N/A,,Overcast,340,2013-08-01 16:53:00
1:17 PM,73.4,62.6,69,30.01,10.0,WNW,6.9,-,N/A,,Overcast,290,2013-08-01 17:17:00
1:53 PM,73.9,63.0,68,29.98,10.0,SW,6.9,-,N/A,,Mostly Cloudy,220,2013-08-01 17:53:00
2:00 PM,75.2,62.6,65,30.00,10.0,West,6.9,-,N/A,,Scattered Clouds,270,2013-08-01 18:00:00
2:53 PM,78.1,61.0,56,29.96,10.0,WNW,8.1,-,N/A,,Partly Cloudy,300,2013-08-01 18:53:00
3:53 PM,80.1,57.9,47,29.95,10.0,West,10.4,-,N/A,,Scattered Clouds,280,2013-08-01 19:53:00
4:53 PM,80.1,57.0,45,29.94,10.0,West,8.1,16.1,N/A,,Clear,280,2013-08-01 20:53:00
5:53 PM,80.1,55.9,43,29.93,10.0,West,12.7,-,N/A,,Partly Cloudy,260,2013-08-01 21:53:00
6:53 PM,80.1,57.0,45,29.94,10.0,West,5.8,17.3,N/A,,Scattered Clouds,270,2013-08-01 22:53:00
7:53 PM,78.1,55.0,45,29.93,10.0,West,10.4,-,N/A,,Clear,280,2013-08-01 23:53:00
8:53 PM,73.9,55.9,53,29.94,10.0,West,3.5,-,N/A,,Clear,280,2013-08-02 00:53:00
9:53 PM,72.0,57.0,59,29.96,10.0,WSW,3.5,-,N/A,,Clear,240,2013-08-02 01:53:00
10:53 PM,71.1,57.0,61,29.97,10.0,Calm,Calm,-,N/A,,Clear,0,2013-08-02 02:53:00
11:53 PM,66.0,57.9,75,29.96,10.0,Calm,Calm,-,N/A,,Clear,0,2013-08-02 03:53:00